Location: DARK SKY Beskydy - Park tmavé oblohy, www.darkskybeskydy.cz
(49.4926°N, 18.5016°E)
Time: 14:04:58
(UTC+01:00)

Vanguard 1 - Pass Details

Date: 22 November 2025
Orbit: 650 x 3821 km, 34.2° (Epoch: 07 December)

Event Time Altitude Azimuth Distance (km) Brightness Sun altitude
Rises 20:24:41 0° 277° (W) 7,568 15.4 -42.9°
Reaches altitude 10° 20:30:24 10° 269° (W) 6,769 14.8 -43.7°
Maximum altitude 20:48:53 33° 217° (SW) 5,121 13.6 -46.4°
Enters shadow 20:56:12 27° 188° (S) 5,183 13.4 -47.5°
